DWFW8688 Weather Reports


Display with metric or nautical units.
time (UTC)temp
F
wind
direction
speed
MPH
gust
MPH
rain 1hr
in
rain 24hr
in
rain mn
in
humidity
%
barometer
mb
20210422225607 62 314 9.0 14.0 0.00 0.00 0.00 21 1016.3
20210422225107 62 331 7.0 13.0 0.00 0.00 0.00 22 1016.5
20210422224607 62 304 10.0 14.0 0.00 0.00 0.00 23 1016.2
20210422224107 62 324 7.0 12.0 0.00 0.00 0.00 22 1016.3
20210422223607 62 339 7.0 12.0 0.00 0.00 0.00 22 1016.4
20210422223107 62 353 5.0 8.0 0.00 0.00 0.00 23 1016.4
20210422222607 62 339 6.0 10.0 0.00 0.00 0.00 23 1016.4
20210422222107 62 310 7.0 12.0 0.00 0.00 0.00 23 1016.4
20210422221607 61 329 7.0 16.0 0.00 0.00 0.00 23 1016.4
20210422221108 61 309 0.0 12.0 0.00 0.00 0.00 23 1016.6
20210422220608 61 317 4.0 12.0 0.00 0.00 0.00 23 1016.7
20210422220107 61 311 6.0 10.0 0.00 0.00 0.00 24 1016.7
20210422215607 62 322 7.0 12.0 0.00 0.00 0.00 24 1016.7
20210422215107 62 300 8.0 10.0 0.00 0.00 0.00 25 1016.9
20210422214607 62 287 7.0 13.0 0.00 0.00 0.00 24 1016.8
20210422214107 62 32 2.0 10.0 0.00 0.00 0.00 24 1017.0
20210422213607 62 358 5.0 7.0 0.00 0.00 0.00 26 1016.9
20210422213107 61 327 5.0 9.0 0.00 0.00 0.00 25 1017.0
20210422212607 61 326 7.0 10.0 0.00 0.00 0.00 25 1017.1
20210422212107 61 344 6.0 13.0 0.00 0.00 0.00 26 1017.1
20210422211607 61 301 7.0 13.0 0.00 0.00 0.00 25 1017.0
20210422211107 61 357 7.0 9.0 0.00 0.00 0.00 26 1017.1
20210422210607 61 347 3.0 7.0 0.00 0.00 0.00 26 1017.3
20210422210107 61 279 6.0 12.0 0.00 0.00 0.00 26 1017.3
20210422205607 61 320 6.0 12.0 0.00 0.00 0.00 26 1017.4
20210422205107 61 260 3.0 9.0 0.00 0.00 0.00 27 1017.4
20210422204607 61 27 1.0 6.0 0.00 0.00 0.00 27 1017.5
20210422204107 61 330 5.0 8.0 0.00 0.00 0.00 26 1017.5
20210422203607 60 53 2.0 5.0 0.00 0.00 0.00 26 1017.6
20210422203107 60 22 5.0 8.0 0.00 0.00 0.00 27 1017.6
20210422202607 59 16 5.0 8.0 0.00 0.00 0.00 29 1017.6
20210422202107 59 51 3.0 6.0 0.00 0.00 0.00 28 1017.7
20210422201607 58 327 5.0 8.0 0.00 0.00 0.00 30 1017.8
20210422201107 58 263 4.0 9.0 0.00 0.00 0.00 30 1017.9
20210422200607 57 269 2.0 5.0 0.00 0.00 0.00 33 1018.0
20210422200107 57 261 3.0 5.0 0.00 0.00 0.00 33 1018.1
20210422195607 57 205 3.0 7.0 0.00 0.00 0.00 33 1018.1
20210422195107 57 192 8.0 14.0 0.00 0.00 0.00 32 1018.1
20210422194607 57 232 7.0 17.0 0.00 0.00 0.00 34 1018.2
20210422194106 58 218 6.0 15.0 0.00 0.00 0.00 32 1018.2
20210422193607 59 237 6.0 10.0 0.00 0.00 0.00 32 1018.3
20210422193106 59 202 8.0 17.0 0.00 0.00 0.00 33 1018.4
20210422192607 59 251 3.0 20.0 0.00 0.00 0.00 33 1018.2
20210422192107 59 242 2.0 7.0 0.00 0.00 0.00 32 1018.3
20210422191607 58 285 3.0 7.0 0.00 0.00 0.00 33 1018.4
20210422191107 58 263 2.0 6.0 0.00 0.00 0.00 32 1018.5
20210422190607 58 320 1.0 5.0 0.00 0.00 0.00 36 1018.4
20210422190106 57 157 5.0 9.0 0.00 0.00 0.00 37 1018.6
20210422185607 57 122 5.0 9.0 0.00 0.00 0.00 37 1018.5
20210422185106 57 139 6.0 10.0 0.00 0.00 0.00 39 1018.5
20210422184606 56 159 2.0 8.0 0.00 0.00 0.00 39 1018.7
20210422184107 56 147 5.0 8.0 0.00 0.00 0.00 39 1018.6
20210422183606 56 118 4.0 8.0 0.00 0.00 0.00 40 1018.8
20210422183107 56 132 5.0 7.0 0.00 0.00 0.00 41 1018.9
20210422182606 56 108 4.0 9.0 0.00 0.00 0.00 40 1018.9
20210422182106 56 142 6.0 8.0 0.00 0.00 0.00 42 1019.0
20210422181607 56 160 3.0 8.0 0.00 0.00 0.00 43 1019.1
20210422181107 56 134 3.0 8.0 0.00 0.00 0.00 42 1019.1
20210422180606 56 236 3.0 6.0 0.00 0.00 0.00 43 1019.3
20210422180106 55 116 2.0 6.0 0.00 0.00 0.00 44 1019.2
20210422175607 55 156 1.0 3.0 0.00 0.00 0.00 44 1019.3
20210422175107 54 148 1.0 3.0 0.00 0.00 0.00 44 1019.4
20210422174606 54 124 4.0 8.0 0.00 0.00 0.00 45 1019.4
20210422174106 54 147 3.0 7.0 0.00 0.00 0.00 45 1019.4
20210422173607 54 137 3.0 7.0 0.00 0.00 0.00 46 1019.4
20210422173106 54 120 1.0 7.0 0.00 0.00 0.00 45 1019.6
20210422172606 54 138 1.0 5.0 0.00 0.00 0.00 47 1019.6
20210422172107 53 145 2.0 3.0 0.00 0.00 0.00 48 1019.7
20210422171606 52 112 4.0 9.0 0.00 0.00 0.00 49 1019.7
20210422171107 52 126 4.0 8.0 0.00 0.00 0.00 50 1019.6
20210422170606 52 166 5.0 10.0 0.00 0.00 0.00 51 1019.6
20210422170107 52 127 4.0 8.0 0.00 0.00 0.00 52 1019.7
20210422165606 51 143 4.0 8.0 0.00 0.00 0.00 52 1019.6
20210422165107 51 114 5.0 8.0 0.00 0.00 0.00 54 1019.7
20210422164606 51 151 5.0 10.0 0.00 0.00 0.00 53 1019.7
20210422164107 51 153 3.0 9.0 0.00 0.00 0.00 55 1019.7
20210422163606 50 140 5.0 10.0 0.00 0.00 0.00 55 1019.7
20210422163106 50 132 5.0 12.0 0.00 0.00 0.00 57 1019.6
20210422162607 50 129 7.0 12.0 0.00 0.00 0.00 58 1019.7
20210422162107 50 141 6.0 10.0 0.00 0.00 0.00 56 1019.7
20210422161606 50 123 7.0 12.0 0.00 0.00 0.00 56 1019.6
20210422161107 50 145 5.0 9.0 0.00 0.00 0.00 55 1019.7
20210422160606 51 159 6.0 8.0 0.00 0.00 0.00 55 1019.6
20210422160106 51 142 4.0 9.0 0.00 0.00 0.00 54 1019.5
20210422155606 51 150 3.0 8.0 0.00 0.00 0.00 52 1019.5
20210422155106 51 153 5.0 9.0 0.00 0.00 0.00 52 1019.6
20210422154606 51 137 3.0 7.0 0.00 0.00 0.00 52 1019.6
20210422154107 52 145 2.0 5.0 0.00 0.00 0.00 48 1019.6
20210422153607 52 143 1.0 3.0 0.00 0.00 0.00 49 1019.6
20210422153106 51 178 1.0 3.0 0.00 0.00 0.00 49 1019.7
20210422152606 51 156 1.0 3.0 0.00 0.00 0.00 49 1019.6
20210422152106 51 125 1.0 3.0 0.00 0.00 0.00 49 1019.5
20210422151606 50 117 1.0 3.0 0.00 0.00 0.00 49 1019.6
20210422151106 50 91 1.0 3.0 0.00 0.00 0.00 49 1019.5
20210422150606 51 63 1.0 3.0 0.00 0.00 0.00 50 1019.5
20210422150106 51 36 1.0 3.0 0.00 0.00 0.00 50 1019.5
20210422145606 51 1 1.0 2.0 0.00 0.00 0.00 51 1019.6
20210422145106 50 248 1.0 1.0 0.00 0.00 0.00 51 1019.5
20210422144606 50 252 1.0 1.0 0.00 0.00 0.00 53 1019.5
20210422144106 50 252 1.0 2.0 0.00 0.00 0.00 54 1019.5
20210422143606 49 267 0.0 0.0 0.00 0.00 0.00 56 1019.4
20210422143106 48 267 0.0 0.0 0.00 0.00 0.00 59 1019.4
20210422142606 47 267 0.0 1.0 0.00 0.00 0.00 60 1019.4
20210422142106 46 267 0.0 0.0 0.00 0.00 0.00 62 1019.4
20210422141606 45 267 0.0 0.0 0.00 0.00 0.00 64 1019.3
20210422141107 44 267 0.0 0.0 0.00 0.00 0.00 64 1019.3
20210422140606 44 267 0.0 0.0 0.00 0.00 0.00 65 1019.2
20210422140106 43 267 0.0 0.0 0.00 0.00 0.00 66 1019.1
20210422135606 43 267 0.0 0.0 0.00 0.00 0.00 67 1019.0
20210422135106 42 267 0.0 0.0 0.00 0.00 0.00 68 1018.8
20210422134605 41 267 0.0 0.0 0.00 0.00 0.00 69 1018.9
20210422134106 41 267 0.0 1.0 0.00 0.00 0.00 69 1018.8
20210422133606 41 267 1.0 2.0 0.00 0.00 0.00 69 1018.6
20210422133106 40 269 1.0 2.0 0.00 0.00 0.00 69 1018.7
20210422132606 40 260 1.0 2.0 0.00 0.00 0.00 69 1018.4
20210422132106 40 263 1.0 2.0 0.00 0.00 0.00 69 1018.4
20210422131606 40 260 1.0 3.0 0.00 0.00 0.00 69 1018.2
20210422131106 40 270 1.0 2.0 0.00 0.00 0.00 68 1018.2
20210422130607 40 275 2.0 2.0 0.00 0.00 0.00 68 1018.3
20210422130106 40 274 2.0 3.0 0.00 0.00 0.00 68 1018.2
20210422125606 40 262 1.0 3.0 0.00 0.00 0.00 68 1018.2
20210422125105 40 235 1.0 3.0 0.00 0.00 0.00 67 1018.1
20210422124606 40 273 1.0 3.0 0.00 0.00 0.00 67 1018.0
20210422124105 40 267 2.0 3.0 0.00 0.00 0.00 67 1017.9
20210422123606 40 263 2.0 3.0 0.00 0.00 0.00 67 1017.7
20210422123106 40 267 1.0 2.0 0.00 0.00 0.00 67 1017.7
20210422122605 41 263 1.0 3.0 0.00 0.00 0.00 67 1017.8
20210422122106 41 265 1.0 3.0 0.00 0.00 0.00 66 1017.5
20210422121606 41 271 1.0 3.0 0.00 0.00 0.00 66 1017.6
20210422121106 41 302 1.0 3.0 0.00 0.00 0.00 66 1017.5
20210422120606 41 295 1.0 2.0 0.00 0.00 0.00 65 1017.7
20210422120106 41 258 1.0 2.0 0.00 0.00 0.00 65 1017.7
20210422115606 41 258 1.0 2.0 0.00 0.00 0.00 65 1017.6
20210422115106 42 258 1.0 3.0 0.00 0.00 0.00 65 1017.5
20210422114605 42 263 2.0 3.0 0.00 0.00 0.00 64 1017.7
20210422114105 42 265 1.0 3.0 0.00 0.00 0.00 63 1017.6
20210422113605 43 265 2.0 3.0 0.00 0.00 0.00 63 1017.5
20210422113106 43 294 1.0 3.0 0.00 0.00 0.00 62 1017.5
20210422112606 43 295 1.0 3.0 0.00 0.00 0.00 62 1017.4
20210422112106 43 295 1.0 3.0 0.00 0.00 0.00 62 1017.3
20210422111605 43 292 2.0 3.0 0.00 0.00 0.00 62 1017.5
20210422111106 43 292 2.0 3.0 0.00 0.00 0.00 62 1017.5
20210422110606 43 292 2.0 3.0 0.00 0.00 0.00 62 1017.4
20210422110105 44 302 2.0 3.0 0.00 0.00 0.00 62 1017.4
20210422105605 44 317 2.0 3.0 0.00 0.00 0.00 62 1017.4
20210422105105 44 267 1.0 3.0 0.00 0.00 0.00 61 1017.4
20210422104605 44 269 2.0 3.0 0.00 0.00 0.00 61 1017.4
20210422104105 44 272 2.0 5.0 0.00 0.00 0.00 61 1017.4
20210422103606 45 31 1.0 3.0 0.00 0.00 0.00 60 1017.4
20210422103106 45 31 2.0 3.0 0.00 0.00 0.00 60 1017.3
20210422102606 45 44 2.0 3.0 0.00 0.00 0.00 60 1017.3
20210422102105 45 45 1.0 2.0 0.00 0.00 0.00 60 1017.2
20210422101605 45 46 2.0 3.0 0.00 0.00 0.00 60 1017.2
20210422101106 45 296 1.0 3.0 0.00 0.00 0.00 60 1017.1
20210422100605 45 282 1.0 2.0 0.00 0.00 0.00 60 1017.1
20210422100106 45 284 1.0 3.0 0.00 0.00 0.00 60 1017.1
20210422095605 45 294 2.0 3.0 0.00 0.00 0.00 60 1017.1
20210422095106 45 297 3.0 7.0 0.00 0.00 0.00 60 1016.9
20210422094605 45 327 4.0 8.0 0.00 0.00 0.00 59 1016.9
20210422094105 45 322 4.0 7.0 0.00 0.00 0.00 59 1016.9
20210422093605 45 332 5.0 8.0 0.00 0.00 0.00 59 1016.8
20210422093106 45 331 4.0 7.0 0.00 0.00 0.00 59 1016.9
20210422092605 46 331 5.0 6.0 0.00 0.00 0.00 59 1016.8
20210422092105 46 317 3.0 6.0 0.00 0.00 0.00 58 1016.7
20210422091606 46 314 5.0 8.0 0.00 0.00 0.00 58 1016.9
20210422091105 46 310 5.0 8.0 0.00 0.00 0.00 58 1016.8
20210422090605 46 323 6.0 8.0 0.00 0.00 0.00 57 1016.7
20210422090105 46 325 6.0 10.0 0.00 0.00 0.00 57 1016.8
20210422085605 46 319 5.0 10.0 0.00 0.00 0.00 56 1016.8
20210422085105 46 330 3.0 7.0 0.00 0.00 0.00 56 1016.8
20210422084605 46 330 5.0 7.0 0.00 0.00 0.00 56 1016.9
20210422084105 46 327 4.0 7.0 0.00 0.00 0.00 56 1016.9
20210422083605 46 331 5.0 7.0 0.00 0.00 0.00 56 1016.8
20210422083105 46 9 3.0 6.0 0.00 0.00 0.00 56 1016.9
20210422082605 46 343 4.0 7.0 0.00 0.00 0.00 55 1017.0
20210422082105 46 334 4.0 7.0 0.00 0.00 0.00 55 1017.0
20210422081605 46 328 4.0 7.0 0.00 0.00 0.00 55 1016.9
20210422081106 46 332 5.0 8.0 0.00 0.00 0.00 55 1017.0
20210422080605 46 342 4.0 7.0 0.00 0.00 0.00 55 1017.1
20210422080105 46 323 5.0 7.0 0.00 0.00 0.00 55 1017.0
20210422075605 46 331 5.0 7.0 0.00 0.00 0.00 56 1017.2
20210422075105 46 315 3.0 3.0 0.00 0.00 0.00 56 1017.2
20210422074605 46 305 3.0 5.0 0.00 0.00 0.00 55 1017.2
20210422074105 46 312 2.0 5.0 0.00 0.00 0.00 55 1017.2
20210422073605 47 330 2.0 3.0 0.00 0.00 0.00 55 1017.2
20210422073105 47 331 1.0 3.0 0.00 0.00 0.00 54 1017.3
20210422072605 47 331 3.0 5.0 0.00 0.00 0.00 54 1017.1
20210422072105 47 315 3.0 3.0 0.00 0.00 0.00 54 1017.3
20210422071605 47 327 2.0 3.0 0.00 0.00 0.00 54 1017.2
20210422071105 47 332 3.0 6.0 0.00 0.00 0.00 53 1017.1
20210422070605 47 347 3.0 6.0 0.00 0.00 0.00 54 1017.2
20210422070104 47 325 3.0 5.0 0.00 0.00 0.00 54 1017.3
20210422065605 47 326 5.0 6.0 0.00 0.00 0.00 54 1017.1
20210422065105 47 330 3.0 6.0 0.00 0.00 0.00 54 1017.2
20210422064605 47 328 5.0 9.0 0.00 0.00 0.00 54 1017.1
20210422064105 47 11 4.0 7.0 0.00 0.00 0.00 55 1017.1
20210422063605 47 332 3.0 6.0 0.00 0.00 0.00 55 1017.0
20210422063105 47 348 3.0 7.0 0.00 0.00 0.00 55 1017.1
20210422062605 47 340 5.0 8.0 0.00 0.00 0.00 55 1017.1
20210422062105 47 329 5.0 8.0 0.00 0.00 0.00 55 1017.1
20210422061605 47 328 4.0 6.0 0.00 0.00 0.00 55 1017.0
20210422061105 47 325 4.0 7.0 0.00 0.00 0.00 55 1017.1
20210422060604 47 326 6.0 12.0 0.00 0.00 0.00 55 1017.2
20210422060105 47 335 6.0 9.0 0.00 0.00 0.00 55 1017.0
20210422055605 47 309 6.0 9.0 0.00 0.00 0.00 56 1017.1
20210422055105 47 322 6.0 10.0 0.00 0.00 0.00 56 1017.0
20210422054605 47 331 5.0 8.0 0.00 0.00 0.00 56 1016.9
20210422054105 47 336 6.0 10.0 0.00 0.00 0.00 56 1016.9
20210422053604 47 311 5.0 8.0 0.00 0.00 0.00 56 1016.9
20210422053105 47 303 4.0 8.0 0.00 0.00 0.00 56 1016.9
20210422052605 47 314 5.0 7.0 0.00 0.00 0.00 56 1016.9
20210422052104 47 324 7.0 9.0 0.00 0.00 0.00 56 1016.8
20210422051605 47 324 7.0 12.0 0.00 0.00 0.00 56 1016.8
20210422051106 47 338 7.0 10.0 0.00 0.00 0.00 56 1017.0
20210422050604 47 327 6.0 10.0 0.00 0.00 0.00 56 1016.9
20210422050105 47 328 5.0 9.0 0.00 0.00 0.00 56 1016.9
20210422045605 47 345 4.0 10.0 0.00 0.00 0.00 56 1016.9
20210422045105 47 350 5.0 8.0 0.00 0.00 0.00 56 1016.9
20210422044604 47 358 5.0 8.0 0.00 0.00 0.00 56 1016.9
20210422044105 47 332 6.0 9.0 0.00 0.00 0.00 55 1017.0
20210422043604 47 349 6.0 9.0 0.00 0.00 0.00 55 1016.9
20210422043105 48 344 6.0 10.0 0.00 0.00 0.00 55 1017.0
20210422042605 48 340 6.0 10.0 0.00 0.00 0.00 55 1016.9
20210422042105 48 337 6.0 12.0 0.00 0.00 0.00 55 1016.9
20210422041605 48 337 5.0 12.0 0.00 0.00 0.00 55 1016.7
20210422041105 48 332 7.0 13.0 0.00 0.00 0.00 55 1016.8
20210422040604 48 321 7.0 12.0 0.00 0.00 0.00 55 1016.6
20210422040105 48 326 7.0 14.0 0.00 0.00 0.00 55 1016.6
20210422035605 48 307 6.0 10.0 0.00 0.00 0.00 55 1016.7
20210422035105 48 303 5.0 12.0 0.00 0.00 0.00 55 1016.6
20210422034605 48 294 6.0 12.0 0.00 0.00 0.00 55 1016.5
20210422034104 48 312 6.0 12.0 0.00 0.00 0.00 55 1016.7
20210422033605 48 317 7.0 12.0 0.00 0.00 0.00 55 1016.5
20210422033105 48 321 7.0 12.0 0.00 0.00 0.00 55 1016.5
20210422032604 48 329 7.0 14.0 0.00 0.00 0.00 54 1016.4
20210422032105 49 320 6.0 10.0 0.00 0.00 0.00 54 1016.5
20210422031605 49 308 6.0 13.0 0.00 0.00 0.00 53 1016.3
20210422031105 49 303 7.0 12.0 0.00 0.00 0.00 53 1016.4
20210422030604 49 316 6.0 12.0 0.00 0.00 0.00 53 1016.4
20210422030104 49 295 5.0 13.0 0.00 0.00 0.00 52 1016.4
20210422025605 50 320 7.0 12.0 0.00 0.00 0.00 52 1016.4
20210422025104 50 297 6.0 12.0 0.00 0.00 0.00 51 1016.3
20210422024604 50 318 7.0 14.0 0.00 0.00 0.00 51 1016.3
20210422024105 51 310 7.0 13.0 0.00 0.00 0.00 50 1016.1
20210422023604 51 325 7.0 13.0 0.00 0.00 0.00 49 1016.1
20210422023105 51 322 7.0 13.0 0.00 0.00 0.00 48 1016.0
20210422022605 51 316 7.0 13.0 0.00 0.00 0.00 48 1016.0
20210422022104 52 328 10.0 16.0 0.00 0.00 0.00 47 1015.9
20210422021604 52 315 9.0 13.0 0.00 0.00 0.00 47 1015.9
20210422021104 52 326 9.0 14.0 0.00 0.00 0.00 47 1015.9
20210422020604 52 328 9.0 17.0 0.00 0.00 0.00 46 1015.7
20210422020104 52 328 12.0 20.0 0.00 0.00 0.00 46 1015.5
20210422015604 52 330 12.0 20.0 0.00 0.00 0.00 46 1015.5
20210422015104 53 329 13.0 20.0 0.00 0.00 0.00 45 1015.6
20210422014604 53 318 13.0 18.0 0.00 0.00 0.00 45 1015.4
20210422014104 53 328 13.0 21.0 0.00 0.00 0.00 45 1015.4
20210422013604 53 316 10.0 20.0 0.00 0.00 0.00 45 1015.4
20210422013105 53 309 10.0 20.0 0.00 0.00 0.00 45 1015.3
20210422012604 53 311 12.0 20.0 0.00 0.00 0.00 45 1015.2
20210422012105 53 333 13.0 20.0 0.00 0.00 0.00 45 1015.1
20210422011604 53 320 10.0 18.0 0.00 0.00 0.00 45 1015.2
20210422011105 54 335 13.0 20.0 0.00 0.00 0.00 44 1015.0
20210422010604 54 317 12.0 22.0 0.00 0.00 0.00 44 1015.2
20210422010104 54 327 16.0 22.0 0.00 0.00 0.00 43 1015.0
20210422005604 54 326 12.0 22.0 0.00 0.00 0.00 43 1015.1
20210422005104 55 327 13.0 23.0 0.00 0.00 0.00 43 1015.1
20210422004604 55 303 12.0 23.0 0.00 0.00 0.00 43 1015.0
20210422004104 55 305 10.0 18.0 0.00 0.00 0.00 42 1015.1
20210422003604 55 313 10.0 16.0 0.00 0.00 0.00 42 1015.2
20210422003104 55 324 12.0 26.0 0.00 0.00 0.00 42 1015.2
20210422002604 55 327 14.0 25.0 0.00 0.00 0.00 42 1015.0
20210422002104 55 330 15.0 20.0 0.00 0.00 0.00 42 1015.1
20210422001604 55 328 14.0 21.0 0.00 0.00 0.00 41 1015.2
20210422001104 55 303 14.0 21.0 0.00 0.00 0.00 41 1015.1
20210422000604 55 327 14.0 23.0 0.00 0.00 0.00 41 1015.0
20210422000104 56 326 13.0 20.0 0.00 0.00 0.00 41 1015.1
20210421235608 55 334 14.0 24.0 0.00 0.00 0.00 41 1015.1
20210421235107 55 322 12.0 22.0 0.00 0.00 0.00 41 1015.1
20210421234607 55 327 14.0 21.0 0.00 0.00 0.00 41 1015.1
20210421234107 55 336 16.0 21.0 0.00 0.00 0.00 40 1015.2
20210421233607 56 318 12.0 22.0 0.00 0.00 0.00 41 1015.3
20210421233108 56 320 12.0 23.0 0.00 0.00 0.00 41 1015.6
20210421232608 56 327 15.0 24.0 0.00 0.00 0.00 40 1015.4
20210421232107 56 331 16.0 23.0 0.00 0.00 0.00 40 1015.4
20210421231607 56 331 15.0 25.0 0.00 0.00 0.00 40 1015.6
20210421231108 56 329 14.0 24.0 0.00 0.00 0.00 41 1015.5
20210421230607 55 325 16.0 23.0 0.00 0.00 0.00 41 1015.8
20210421230107 55 326 16.0 23.0 0.00 0.00 0.00 40 1015.7